Location: Lanoux
(43.1180°N, 1.4255°E)
Time: 15:32:40
(UTC+00:00)

SL-16 R/B - Pass Details

Date: 13 December 2025
Orbit: 841 x 844 km, 71.0° (Epoch: 19 January)

Event Time Altitude Azimuth Distance (km) Brightness Sun altitude
Rises 17:23:18 0° 149° (SSE) 3,384 5.2 -11.2°
Reaches altitude 10° 17:27:06 10° 124° (ESE) 2,456 4.3 -11.9°
Maximum altitude 17:29:38 13° 97° (E) 2,237 3.9 -12.3°
Enters shadow 17:29:43 13° 96° (E) 2,238 3.9 -12.3°
